{"data":{"norad_id":31124,"intl_designator":"2007-012H","name":"SAUDICOMSAT 5","alt_names":[],"object_type":"PAYLOAD","status":"ACTIVE","operator":null,"country":"SAUD","launch_date":"2007-04-17","launch_site_code":"TYMSC","launch_vehicle":null,"mission":null,"orbit_class":"UNKNOWN","rcs_meters":0.054,"size_class":null,"mass_kg":null,"dimensions":null,"purposes":[],"wikipedia_slug":null,"has_3d_model":false,"image_url":null,"decayed_at":null,"tle_current":{"epoch":"2026-05-25T04:28:34.495104Z","epoch_age_seconds":65783,"freshness":"FRESH","line1":"1 31124U 07012H   26145.18651036  .00000414  00000+0  80169-4 0  9995","line2":"2 31124  98.3479 119.6020 0046958 196.4756 163.4924 14.68125898 20229","mean_motion":14.68125898,"eccentricity":0.0046958,"inclination_deg":98.3479,"raan_deg":119.602,"arg_perigee_deg":196.4756,"mean_anomaly_deg":163.4924,"bstar":8.0169e-5,"rev_number":2022,"period_min":98.084231193093,"perigee_km":633.97447271971,"apogee_km":700.14011947092,"semimajor_km":7045.1942960953,"source":"CELESTRAK","updated_at":"2026-05-25T13:37:55.096388Z"}}}